Location: Observatory
(52.1446°N, 0.4624°W)
Time: 05:02:13
(UTC+01:00)

ISS - Pass Details

Date: 20 May 2018
Orbit: 402 x 407 km, 51.6° (Epoch: 24 May)

Event Time Altitude Azimuth Distance (km) Brightness Sun altitude
Exits shadow 00:38:52 63° 186° (S) 454 -3.9 -17.8°
Maximum altitude 00:39:01 65° 166° (SSE) 448 -4.0 -17.8°
Drops below altitude 10° 00:42:16 10° 84° (E) 1,459 -1.0 -17.8°
Sets 00:44:21 0° 81° (E) 2,320 0.1 -17.9°
